Location: Ch?enovice
(49.7164°N, 15.2160°E)
Time: 17:39:39
(UTC+00:00)

Cosmos 1400 Rocket - Pass Details

Date: 23 May 2024
Orbit: 501 x 544 km, 81.2° (Epoch: 13 June)

Event Time Altitude Azimuth Distance (km) Brightness Sun altitude
Exits shadow 00:32:26 21° 254° (WSW) 1,276 4.3 -16.5°
Maximum altitude 00:34:03 27° 291° (WNW) 1,072 4.2 -16.4°
Drops below altitude 10° 00:37:30 10° 351° (N) 1,817 6.3 -16.1°
Sets 00:39:55 0° 4° (N) 2,708 7.7 -16.0°
